Regional Weather Roundup
Issued by NWS

Home | Current Version | Previous Version | Graphics & Text | Print | Product List | Glossary On
Versions: 1 2 3 4 5 6 7 8 9 10 11 12 13 14 15 16 17 18 19 20 21 22 23 24 25 26 27 28 29 30 31 32 33 34 35 36 37 38 39 40 41 42 43 44 45 46 47 48 49 50
000
ASUS43 KLMK 271310
RWRKY
KENTUCKY REGIONAL WEATHER ROUNDUP
NATIONAL WEATHER SERVICE LOUISVILLE KY
800 AM EST SAT DEC 27 2014

NOTE "FAIR" INDICATES FEW OR NO CLOUDS BELOW 12,000 FEET
WITH NO SIGNIFICANT WEATHER AND/OR OBSTRUCTIONS TO VISIBILITY.

KYZ001>023-026-027-061>063-070>075-271400-
WESTERN AND SOUTH CENTRAL KENTUCKY

CITY           SKY/WX    TMP DP  RH WIND       PRES   REMARKS
PADUCAH        CLOUDY    47  45  93 S5        30.15R
HENDERSON      CLOUDY    46  43  87 S10       30.16R
OWENSBORO      CLOUDY    45  44  96 S9        30.18F FOG
HOPKINSVILLE   NOT AVBL
BOWLING GREEN  CLOUDY    50  38  63 SE3       30.21S
GLASGOW        CLOUDY    48  36  61 S5        30.21F
$$

KYZ024-025-028>034-038-045-046-053-271400-
NORTH CENTRAL KENTUCKY

CITY           SKY/WX    TMP DP  RH WIND       PRES   REMARKS
LOUISVILLE/SDF LGT RAIN  48  40  73 S5        30.22R
LOUISVILLE/LOU CLOUDY    48  38  68 S3        30.22R
FORT KNOX      LGT RAIN  45  41  86 S2        30.21R
$$

KYZ035>037-039>044-047>052-055>060-089>105-271400-
NORTHEAST KENTUCKY

CITY           SKY/WX    TMP DP  RH WIND       PRES   REMARKS
LEXINGTON      LGT RAIN  45  36  70 SE6       30.23R
COVINGTON      LGT RAIN  43  35  73 S6        30.21R
FRANKFORT      CLOUDY    46  36  68 S3        30.22R
$$

KYZ054-064>069-076>088-106>120-271400-
SOUTHEAST KENTUCKY

CITY           SKY/WX    TMP DP  RH WIND       PRES   REMARKS
JACKSON        MOCLDY    45  25  45 S3        30.24R
LONDON         PTCLDY    42  30  62 CALM      30.25R
SOMERSET       CLOUDY    43  34  70 CALM      30.26S
MIDDLESBORO    CLOUDY    40  37  89 CALM      30.29R
MONTICELLO     MOSUNNY   49  35  58 S6        30.27R
$$



USA.gov is the U.S. government's official web portal to all federal, state and local government web resources and services.